Location: Albany
(35.0000°S, 118.0000°E)
Time: 14:36:25

SJ-6B - Visible Passes

Search period start: 21 March 2018 00:00
Search period end: 31 March 2018 00:00
Orbit: 512 x 582 km, 97.7° (Epoch: 21 March)

Date Brightness Start Highest point End Pass type
(mag) Time Alt. Az. Time Alt. Az. Time Alt. Az.
21 Mar 5.1 07:34:38 10° SE 07:34:51 11° SE 07:34:51 11° SE visible
21 Mar 5.8 09:09:51 10° SSW 09:10:29 13° SW 09:10:29 13° SW visible
22 Mar 5.8 09:04:23 10° SSW 09:04:50 12° SSW 09:04:50 12° SSW visible
23 Mar 5.8 08:58:58 10° SSW 08:59:10 11° SSW 08:59:10 11° SSW visible
